Location: Unspecified
(0.0000°N, 0.0000°E)
Time: 02:23:23
(UTC+00:00)

Transit 2A - All Passes

Search period start: 24 September 2014 00:00
Search period end: 04 October 2014 00:00
Orbit: 600 x 962 km, 66.7° (Epoch: 23 September)

Date Brightness Start Highest point End Pass type
(mag) Time Alt. Az. Time Alt. Az. Time Alt. Az.
24 Sep - 07:52:24 10° SSE 07:55:34 18° ESE 07:58:35 10° ENE daylight
24 Sep - 09:35:12 10° WSW 09:38:29 19° WNW 09:41:38 10° NNW daylight
24 Sep - 20:23:27 10° NNW 20:29:18 68° ENE 20:35:34 10° SSE visible
25 Sep - 09:00:50 10° SW 09:05:02 34° WNW 09:09:00 10° N daylight
25 Sep - 19:50:18 10° N 19:55:51 43° ENE 20:01:44 10° SE visible
25 Sep - 21:35:13 10° WNW 21:38:59 17° WSW 21:42:52 10° SSW night (unlit)
26 Sep - 08:26:58 10° SSW 08:31:35 63° WNW 08:35:54 10° N daylight
26 Sep - 19:17:29 10° NNE 19:22:23 27° ENE 19:27:32 10° SE visible
26 Sep - 21:00:28 10° NW 21:05:26 27° WSW 21:10:37 10° SSW visible
27 Sep - 07:53:27 10° SSW 07:58:07 70° ESE 08:02:28 10° NNE daylight
27 Sep - 18:45:13 10° NNE 18:48:56 17° ENE 18:52:46 10° ESE visible
27 Sep - 20:26:17 10° NW 20:31:53 42° WSW 20:37:48 10° S visible
28 Sep - 07:20:16 10° S 07:24:37 38° ESE 07:28:41 10° NE daylight
28 Sep - 19:52:28 10° NNW 19:58:22 66° WSW 20:04:39 10° S visible
29 Sep - 06:47:31 10° SSE 06:51:05 22° ESE 06:54:28 10° ENE daylight
29 Sep - 08:31:17 10° WSW 08:33:57 15° WNW 08:36:33 10° NW daylight
29 Sep - 19:18:55 10° NNW 19:24:53 80° ENE 19:31:13 10° SSE visible
30 Sep - 06:15:41 10° SE 06:17:31 12° ESE 06:19:19 10° E daylight
30 Sep - 07:56:38 10° SW 08:00:30 27° WNW 08:04:12 10° NNW daylight
30 Sep - 18:45:39 10° N 18:51:24 51° ENE 18:57:30 10° SE visible
30 Sep - 20:31:29 10° W 20:34:35 14° WSW 20:37:45 10° SW visible
01 Oct - 07:22:36 10° SW 07:27:03 49° WNW 07:31:15 10° N daylight
01 Oct - 18:12:42 10° N 18:17:56 32° ENE 18:23:27 10° SE visible
01 Oct - 19:56:22 10° WNW 20:01:01 23° WSW 20:05:50 10° SSW visible
02 Oct - 06:48:57 10° SSW 06:53:36 88° ESE 06:57:56 10° NNE daylight
02 Oct - 17:40:10 10° NNE 17:44:29 21° ENE 17:48:57 10° ESE daylight
02 Oct - 19:22:01 10° NW 19:27:28 35° WSW 19:33:11 10° S visible
03 Oct - 06:15:39 10° S 06:20:06 47° ESE 06:24:17 10° NE daylight
03 Oct - 17:08:36 10° NE 17:11:00 12° ENE 17:13:27 10° E daylight
03 Oct - 18:48:04 10° NNW 18:53:57 56° WSW 19:00:08 10° S visible
